RH
9 10 9 8 8 8 9 10 10 12 13 15 16 19 22 26 30 28 27 33 36 37 39 41 43 47 54 68 86 99 103 103 102 100 97 93 87 83 81 84 93 99 100 100 102 102 101 101 100 100 101 102 101 101 101 100 100 101 104 106 104 98 91 88 87 86 87 87 86 84 79 74 67 57 47 39 33 32 33 34 33 31 30 30 30 29
9 10 9 9 10 10 10 11 12 13 15 16 18 20 23 26 29 31 31 34 37 39 40 42 49 57 73 94 105 104 103 104 102 103 102 95 89 87 87 89 94 98 100 100 101 100 101 101 101 101 101 101 100 100 100 100 103 106 104 99 94 90 89 89 89 87 86 84 81 78 74 67 59 49 41 36 34 34 35 34 32 31 30 30 29 29
11 11 10 11 12 12 13 13 14 15 16 17 18 20 24 26 27 33 36 38 41 43 46 54 68 81 96 108 108 102 103 104 103 105 103 98 97 98 97 98 99 100 100 101 101 101 101 100 100 101 100 99 99 101 103 105 107 105 99 94 92 92 91 89 86 84 80 75 70 66 60 53 46 39 35 34 35 36 36 33 32 32 33 32 32 32
10 11 11 11 13 15 17 18 20 21 22 23 24 25 29 32 34 39 44 48 54 61 69 79 85 89 96 103 105 105 105 106 107 106 103 99 100 100 100 101 101 101 101 100 101 101 100 100 100 100 99 99 100 102 103 104 103 99 96 94 92 88 84 79 75 70 65 60 54 49 44 40 36 35 34 35 37 36 34 33 34 34 34 34 35 35
11 11 11 11 12 13 16 19 22 26 29 31 33 38 45 51 57 66 73 77 80 85 90 93 91 89 92 97 99 102 104 103 103 101 100 100 100 100 100 101 100 101 101 101 101 101 100 100 100 100 100 100 99 99 98 98 98 96 92 88 81 74 68 61 56 51 46 43 39 36 34 33 33 34 36 37 37 35 34 35 36 36 35 35 36 36
13 12 12 12 12 12 14 16 19 23 29 32 34 41 51 61 70 82 92 96 99 101 101 99 97 92 91 96 100 103 104 103 101 100 101 100 100 101 100 101 102 102 101 101 100 100 100 101 102 103 104 102 101 100 99 96 93 86 77 69 61 54 48 43 39 37 35 34 33 32 32 33 34 36 37 37 35 34 35 37 37 36 36 35 36 37
14 13 13 14 14 14 14 15 17 20 25 31 33 38 48 58 70 81 89 95 101 104 103 102 100 92 90 97 103 105 105 103 102 102 102 102 103 102 103 104 104 102 100 101 101 102 103 104 106 107 107 106 103 98 91 82 71 61 52 45 40 37 35 34 34 33 32 32 32 33 33 35 36 37 36 34 32 32 33 35 36 36 36 35 36 38
16 16 16 16 16 16 17 17 17 18 21 26 29 34 41 51 62 73 82 90 96 100 103 103 102 99 95 97 102 105 106 105 105 105 105 106 106 105 106 105 104 103 101 104 105 104 106 107 107 108 103 96 87 75 63 53 44 39 35 33 32 33 33 33 33 33 33 34 35 37 38 38 37 35 34 32 31 32 33 34 34 35 35 36 36 37
20 20 19 19 19 19 19 19 19 19 20 22 24 28 33 40 49 58 70 80 85 92 101 102 99 100 96 92 97 101 102 104 106 107 107 105 104 104 105 103 105 106 103 107 109 104 104 102 96 89 77 64 54 44 39 35 33 32 33 34 34 35 35 35 36 37 38 39 39 40 39 38 37 34 31 30 31 32 34 36 37 38 38 38 38 38
22 21 21 20 20 20 20 20 20 21 21 22 23 24 26 29 35 41 50 58 62 69 80 83 80 82 79 76 81 87 91 95 99 105 108 108 105 105 107 105 106 106 101 100 96 87 81 73 61 52 44 38 35 34 34 34 35 36 37 38 38 38 40 41 43 44 44 44 42 40 38 36 35 33 32 32 33 34 36 38 40 41 41 41 42 42
22 21 20 19 19 19 19 19 19 20 22 22 23 24 25 27 29 32 35 39 41 44 50 54 55 56 54 54 63 73 78 81 84 91 98 101 98 95 95 90 86 82 75 67 60 52 47 41 37 36 35 36 37 38 40 41 42 43 44 45 47 48 49 50 51 50 49 47 45 43 40 38 36 35 35 35 36 38 38 39 40 42 42 43 43 43
21 20 19 18 18 18 18 18 19 20 21 22 23 24 24 26 27 28 30 32 34 34 35 38 40 40 38 39 46 53 55 55 55 59 63 64 62 59 57 53 49 46 43 40 38 37 38 38 39 41 42 44 47 48 50 52 54 55 56 57 57 56 55 54 53 52 50 48 47 45 44 43 41 40 40 40 40 41 41 42 42 42 42 42 42 41
20 20 19 18 18 18 19 19 20 21 22 23 24 24 25 25 26 27 29 29 31 31 30 31 32 31 31 33 36 38 39 38 38 40 40 40 39 39 39 38 39 40 41 42 43 44 45 46 49 52 55 58 60 62 63 64 64 64 62 59 56 54 53 52 51 49 48 47 46 45 44 43 43 42 42 41 41 41 41 41 40 40 40 40 40 39
19 19 19 19 19 19 20 21 21 22 23 24 25 26 27 28 28 29 31 32 32 33 33 34 35 34 35 37 39 40 41 41 41 41 42 42 43 44 45 46 47 49 50 51 53 56 58 62 67 70 72 71 71 70 69 67 63 60 58 55 53 52 51 51 49 47 46 46 46 45 44 44 43 43 43 42 41 40 40 40 40 40 40 40 40 40
20 20 19 20 20 21 22 23 24 25 26 27 29 31 32 32 33 33 34 35 36 38 38 38 38 38 40 43 46 51 53 53 53 54 54 55 56 58 60 61 62 64 67 69 72 74 76 77 77 75 73 71 69 68 66 63 60 60 62 62 61 61 60 59 56 53 52 51 50 49 48 47 46 45 45 45 45 43 43 43 44 44 45 46 46 46
22 22 22 22 23 24 26 27 29 30 31 31 32 34 34 34 34 34 34 35 37 40 41 44 47 49 53 58 65 74 75 73 72 71 69 69 69 71 72 72 73 75 77 77 76 75 73 71 69 68 67 67 67 68 67 67 69 72 75 74 72 70 68 66 63 61 59 57 57 55 54 53 52 52 51 51 50 49 48 48 47 48 48 50 50 51
26 27 26 26 27 28 29 31 31 32 32 31 31 33 34 35 36 38 40 43 48 52 54 62 68 68 69 70 73 77 75 70 68 64 61 60 60 61 63 63 65 66 67 68 70 70 70 71 72 73 74 75 76 77 78 79 80 81 81 79 77 76 73 71 68 66 64 63 62 61 59 58 57 56 55 54 53 52 51 50 49 47 47 46 47 46
28 30 27 25 27 28 28 29 30 30 32 32 33 35 37 40 44 49 53 56 60 62 60 63 66 62 58 54 52 51 49 45 44 44 45 47 50 54 57 58 59 62 65 67 71 74 76 79 82 84 85 87 87 87 86 85 83 81 77 74 72 71 69 67 64 62 60 58 57 56 55 54 53 53 52 51 50 49 49 48 47 45 44 43 43 42
27 29 28 25 26 28 30 32 33 34 36 38 39 40 40 44 46 48 51 51 51 50 46 44 44 40 38 40 40 40 40 40 42 45 48 51 55 61 65 67 69 72 75 76 78 80 83 85 85 85 85 84 82 79 76 73 71 67 64 62 60 58 57 56 55 54 53 53 52 52 52 51 51 50 49 48 46 44 43 42 41 40 38 37 36 34
24 27 28 25 25 27 29 31 33 34 34 36 36 35 34 36 35 35 37 37 36 36 33 32 31 32 38 45 47 47 48 51 55 58 60 62 66 72 77 80 80 80 79 77 75 73 73 72 71 69 68 66 65 63 62 61 60 59 57 56 55 54 53 51 51 50 49 48 47 46 45 44 43 41 39 37 35 34 32 30 28 26 25 23 22 20
19 20 21 20 20 22 23 24 26 28 28 28 29 29 30 30 29 29 30 32 32 30 30 29 28 34 45 51 50 51 55 60 64 67 68 70 72 75 77 75 71 68 66 64 62 61 61 61 60 60 59 59 58 57 57 56 56 55 54 53 51 50 48 47 46 44 43 41 39 36 34 31 29 27 25 23 21 19 18 16 15 14 13 12 11 11
16 17 17 17 18 19 20 22 24 25 25 25 25 26 26 25 24 24 26 32 35 36 37 36 35 43 54 54 52 55 58 59 61 63 65 66 67 67 67 65 64 63 63 62 62 61 61 60 59 58 57 56 55 54 53 52 51 50 49 48 46 44 42 39 36 34 31 28 25 22 19 17 15 14 13 12 11 11 10 10 10 9 9 9 9 8
17 18 18 18 19 20 21 22 22 22 22 22 24 24 25 25 26 27 32 39 43 46 48 45 44 54 62 62 62 63 62 62 64 65 66 67 66 66 66 66 64 63 62 61 60 60 60 59 58 57 56 54 53 52 50 48 45 43 40 36 33 30 27 24 21 18 16 14 13 12 11 11 10 10 10 10 10 10 9 9 9 8 8 8 7 7
17 18 19 18 18 20 21 21 21 21 22 25 28 29 30 30 32 35 41 45 48 54 58 57 58 65 69 69 71 70 69 70 71 70 69 66 64 63 64 63 63 63 64 63 63 62 60 58 56 53 50 47 43 40 36 32 29 25 23 20 18 16 15 13 12 11 11 11 11 11 10 10 10 10 9 9 9 8 8 7 7 7 6 6 6 6
17 18 18 19 20 23 24 25 25 25 27 30 33 35 37 39 43 50 56 59 61 65 68 67 68 70 69 68 68 67 67 68 68 67 66 64 65 67 69 70 70 68 65 62 59 55 51 47 43 38 34 30 27 23 21 18 17 16 15 14 13 12 11 11 11 11 10 11 10 10 10 9 8 8 8 7 7 6 6 6 6 5 5 5 5 5
19 19 19 20 23 27 29 30 30 33 37 40 44 49 52 55 61 66 67 68 67 66 66 65 66 66 64 64 64 65 66 68 70 70 70 69 70 70 68 65 61 57 53 48 44 39 34 30 26 23 20 18 17 16 15 14 14 13 12 12 11 11 10 10 10 10 9 9 8 8 8 7 7 6 6 6 5 5 5 5 4 4 4 4 4 4
22 23 23 25 27 31 33 36 39 43 48 53 57 61 62 64 67 68 67 66 65 64 64 65 66 66 65 66 68 70 71 73 74 73 71 69 66 63 59 55 50 46 41 35 30 25 22 20 18 17 17 16 15 14 14 13 12 12 11 11 10 10 9 9 8 8 8 7 7 7 6 6 6 5 5 5 5 5 4 4 4 4 4 4 4 4
27 28 30 32 35 38 41 43 45 48 50 53 56 58 59 62 64 64 65 65 65 67 68 68 68 69 70 72 75 75 75 74 73 71 68 65 63 60 55 48 42 35 29 24 21 19 18 18 17 17 17 16 15 14 13 12 11 10 10 9 9 9 8 8 8 7 7 6 6 5 5 5 5 5 5 5 4 4 4 4 4 4 4 4 4 4
34 36 37 39 42 44 46 47 49 50 51 53 54 55 57 60 62 64 66 67 68 71 74 74 75 76 76 77 76 73 70 69 68 65 60 56 52 46 39 32 27 23 20 19 18 17 17 17 16 16 16 15 13 12 11 10 10 9 9 9 8 8 7 7 6 6 5 5 5 5 5 5 5 5 5 5 5 5 4 5 4 4 5 4 4 4
41 43 44 45 48 49 49 50 51 52 53 55 55 56 58 61 64 67 69 71 73 76 77 76 75 73 71 69 66 62 61 59 56 49 42 36 31 26 22 20 19 18 17 17 17 16 16 15 14 13 12 11 11 10 9 9 9 8 8 7 7 6 6 6 5 5 5 5 5 5 5 5 4 5 5 4 5 4 4 4 4 4 4 4 4 4
48 49 49 49 51 52 52 53 54 56 58 58 57 58 61 63 66 69 71 72 74 73 70 67 66 64 61 59 56 51 46 42 36 30 25 22 21 19 18 18 17 16 16 15 15 14 13 12 12 11 10 10 9 9 8 8 7 7 6 6 6 5 5 5 5 5 5 5 5 5 5 5 5 5 5 4 4 4 4 4 4 4 4 3 3 3
50 50 50 50 51 52 53 54 55 57 58 59 59 59 61 63 65 66 66 65 65 63 62 60 60 59 54 49 44 38 32 28 24 21 20 19 18 17 17 16 15 15 15 14 14 13 12 11 10 10 9 9 8 7 7 6 6 6 6 6 6 5 5 5 5 5 5 5 5 5 5 5 4 4 4 4 4 4 3 3 3 3 3 3 3 2
49 50 50 50 51 51 51 52 53 54 56 57 58 59 60 60 61 60 59 58 58 58 56 54 50 44 38 33 29 26 23 21 19 18 17 16 15 15 15 15 14 14 14 13 12 11 10 9 9 8 8 7 7 7 6 6 6 6 6 6 6 6 5 5 5 5 5 5 4 4 4 4 4 4 4 3 3 3 3 3 3 3 2 2 2 2
49 50 50 50 49 49 49 49 51 53 54 55 56 56 57 57 57 58 57 55 52 48 43 38 33 28 25 23 21 20 19 18 17 16 15 14 14 13 13 13 12 12 11 10 9 9 8 8 8 8 7 7 6 6 6 6 6 6 6 6 6 6 6 6 5 5 5 5 4 4 4 3 3 3 3 3 3 3 3 3 3 2 2 2 2 2
47 47 47 47 48 48 49 50 52 53 54 54 54 54 54 53 51 49 46 42 37 31 27 25 23 21 20 19 18 18 17 17 16 15 14 13 12 11 11 10 10 9 9 8 8 7 7 7 7 7 6 6 6 6 6 6 6 6 6 6 6 6 5 5 5 5 4 4 4 3 3 3 3 3 3 3 3 3 3 3 3 2 2 2 2 2
45 46 46 47 49 50 51 52 53 55 55 54 51 47 43 39 34 31 29 28 25 23 21 20 19 18 18 18 17 16 16 15 15 14 12 12 11 10 9 8 8 8 8 7 7 7 7 7 7 7 6 6 6 6 6 6 6 6 6 6 6 5 5 5 5 4 4 3 3 3 3 3 3 3 3 3 3 3 3 3 3 3 2 2 2 2
46 47 47 49 50 52 53 53 51 50 48 43 38 32 28 25 22 21 22 22 20 19 19 18 18 17 16 16 15 14 14 14 14 12 11 10 9 9 8 8 8 8 8 7 7 7 7 7 6 6 6 6 6 6 6 6 6 6 6 6 5 5 5 4 4 3 3 3 3 3 3 3 3 3 3 3 3 3 3 3 3 2 2 2 2 2
48 49 49 50 49 46 44 41 37 35 32 28 25 22 20 19 18 17 17 17 16 16 16 15 15 15 14 14 13 13 12 12 12 11 10 10 9 9 9 9 9 8 8 7 7 7 7 7 7 6 6 6 6 6 6 6 5 5 5 4 4 4 3 3 3 3 3 3 3 3 3 3 3 3 3 3 3 3 3 3 2 2 2 2 3 2
46 44 41 39 36 31 28 25 23 22 22 21 20 19 17 16 15 15 15 15 15 14 14 13 13 13 12 11 11 10 10 10 10 10 10 10 10 10 9 9 9 9 8 8 7 7 7 7 7 7 7 6 6 6 5 5 4 4 4 3 3 3 3 3 3 3 3 3 3 3 3 3 3 3 3 3 3 3 3 3 2 2 3 2 3 2
33 29 26 24 22 21 20 20 19 19 19 18 18 17 16 15 15 14 14 14 13 13 12 12 11 10 10 9 9 9 8 8 8 9 10 10 10 10 9 8 8 8 8 8 8 8 7 7 7 7 7 6 5 5 4 4 4 3 3 3 3 3 4 3 3 3 3 3 3 3 3 3 3 3 3 3 3 3 3 3 2 2 3 2 2 2
22 20 20 20 20 20 20 20 19 19 18 18 17 16 16 15 14 14 13 12 12 11 10 10 9 9 9 9 9 9 9 8 8 8 8 8 8 8 8 8 8 8 8 8 8 8 7 7 6 6 5 5 4 4 4 4 4 4 4 4 4 4 4 3 3 3 3 3 3 3 3 3 3 3 3 3 3 3 3 2 2 3 3 2 2 2
19 19 19 20 20 20 19 19 19 19 18 17 16 15 14 14 13 12 11 10 10 9 9 9 9 9 9 9 9 9 9 9 8 8 8 8 8 8 8 8 8 8 8 8 7 7 7 6 6 5 4 4 3 3 4 4 4 4 4 4 4 4 4 4 3 3 3 3 3 3 3 3 3 3 3 3 3 3 2 2 2 2 2 2 2 2
19 19 19 19 18 18 17 16 16 15 15 14 13 12 12 11 10 10 10 9 9 9 9 9 9 9 9 9 9 9 9 8 8 8 8 8 8 9 9 9 8 8 8 8 7 7 6 5 5 4 3 3 3 3 4 4 4 4 4 4 4 4 4 3 3 3 3 3 3 3 3 3 2 3 3 3 3 2 2 2 2 2 2 2 2 2
18 17 17 16 15 14 13 12 11 11 10 10 10 10 9 9 9 9 9 9 9 9 9 8 8 8 8 8 9 9 9 9 9 9 9 9 9 9 9 9 9 8 8 7 7 6 5 5 4 4 4 4 4 4 4 4 4 4 4 4 4 4 3 3 3 3 3 3 3 3 3 3 2 2 3 2 2 2 2 2 2 2 2 2 2 2
15 14 13 12 11 11 10 10 9 9 9 9 9 10 10 10 10 10 9 9 9 9 8 8 8 8 8 8 9 9 9 10 9 10 10 10 10 10 9 9 8 7 7 7 6 5 5 4 4 4 4 4 4 4 4 4 4 4 4 4 3 3 3 3 3 3 3 3 3 3 2 3 2 2 2 2 2 2 2 2 2 2 2 2 2 2
12 11 10 10 9 9 9 9 9 9 9 10 10 10 10 10 10 10 9 9 9 8 8 8 8 8 9 9 10 11 11 11 11 10 10 10 10 10 9 8 8 7 6 6 5 5 5 5 5 5 5 5 4 4 4 4 4 4 3 4 3 3 3 3 3 3 3 3 3 3 2 2 2 2 2 2 2 2 2 2 3 2 2 2 2 2
10 10 10 10 10 10 10 10 11 10 10 10 11 11 11 11 11 10 10 9 9 9 9 9 9 10 11 11 12 12 11 11 11 11 10 10 10 9 8 8 7 6 5 5 4 5 5 5 5 5 5 5 4 4 4 4 4 4 3 3 3 3 3 3 3 3 3 2 2 2 2 2 2 2 2 2 2 2 2 2 3 3 2 2 2 2
12 12 12 12 12 12 12 12 12 12 11 12 13 12 12 12 11 11 10 9 9 9 10 11 12 12 13 12 12 12 11 11 11 10 10 10 9 9 8 7 6 5 5 4 4 5 5 5 5 5 5 5 4 4 4 4 3 3 3 3 3 3 3 3 2 3 3 3 3 3 3 2 2 2 2 2 3 2 2 2 2 2 2 2 2 2
13 13 14 14 14 14 13 13 14 14 14 14 14 14 13 12 11 10 10 9 10 11 12 13 13 13 13 12 12 11 10 10 9 9 9 9 8 7 6 6 5 5 5 5 5 5 5 5 5 5 4 4 4 4 4 4 4 3 3 3 3 3 3 3 3 3 3 3 3 3 3 3 2 2 2 2 3 3 2 2 2 2 3 2 2 2
13 14 14 15 15 15 14 14 14 14 14 13 13 12 11 10 10 10 10 10 11 12 13 14 14 13 12 11 11 10 10 10 9 9 8 8 7 6 5 5 5 5 5 5 5 5 5 5 5 5 4 4 4 4 4 4 3 3 3 3 3 3 3 3 3 3 3 3 3 3 3 3 3 3 2 2 3 3 3 2 2 3 2 2 2 3
13 13 14 15 15 14 14 13 13 13 12 12 11 11 10 10 10 10 11 12 13 13 13 13 13 12 11 10 10 10 10 9 8 8 7 6 5 5 5 5 5 5 5 5 5 5 5 5 4 4 4 4 4 4 4 4 3 3 3 3 3 3 3 3 3 3 3 3 3 3 3 3 3 3 3 2 3 3 3 3 3 2 3 3 2 2
Wind_Speed
59 58 59 56 54 54 54 55 56 57 59 60 62 63 64 65 66 69 69 68 70 70 71 71 71 70 70 69 69 68 68 69 70 71 73 73 74 74 74 75 76 77 78 79 80 82 83 85 86 88 89 90 91 93 94 96 97 99 100 102 103 105 107 108 108 107 105 102 99 97 96 95 95 94 92 91 90 89 89 89 87 85 82 79 77 76
54 54 53 51 50 51 51 51 52 53 55 56 58 59 60 61 62 64 66 66 67 68 68 68 67 67 66 66 66 67 69 70 72 73 74 74 74 74 75 75 76 77 79 81 83 85 86 88 89 90 92 93 94 96 98 99 101 102 103 105 107 108 109 109 107 105 101 99 97 96 96 95 94 94 93 92 91 90 90 89 85 81 78 76 74 74
50 50 49 48 48 49 48 49 49 50 52 53 55 56 57 59 59 60 62 63 65 66 66 65 65 65 64 65 67 69 71 73 75 75 75 75 75 75 76 77 79 81 83 85 87 88 89 91 92 94 95 97 98 99 101 102 103 105 107 108 110 110 109 107 104 101 99 98 97 96 95 95 95 94 93 92 92 91 90 87 83 79 77 76 75 76
47 46 46 46 46 47 47 47 48 48 50 51 53 53 54 56 57 58 59 61 62 63 64 65 66 66 66 68 70 72 74 75 75 75 74 75 76 77 79 81 83 85 87 88 89 90 92 93 95 97 99 100 102 103 104 105 107 109 110 111 110 108 106 103 100 99 98 97 97 96 96 95 95 94 93 92 92 91 88 84 81 80 79 78 78 79
45 45 45 45 45 45 46 47 47 48 49 51 52 52 53 55 56 56 58 59 61 62 64 66 68 68 69 71 72 72 73 73 74 74 75 76 78 80 82 84 86 87 89 89 90 92 94 96 98 100 102 103 104 105 106 108 110 111 110 109 106 103 101 100 99 98 98 98 97 97 96 95 94 93 93 92 91 89 86 83 83 82 82 82 83 84
45 45 45 45 45 45 46 46 47 48 49 51 52 52 53 54 56 57 58 60 62 64 66 69 71 70 70 71 72 72 73 74 75 77 78 80 82 84 85 87 88 89 90 91 92 94 97 100 102 103 105 106 107 109 110 110 110 108 106 104 101 100 99 99 98 98 97 97 97 96 95 95 94 93 93 92 89 87 86 85 85 86 87 87 87 88
43 44 44 45 45 45 46 46 47 48 49 51 53 53 54 55 57 59 61 62 64 66 68 71 73 72 71 72 74 75 77 78 79 81 82 84 86 88 89 90 91 92 93 94 96 98 101 103 104 106 108 109 110 109 109 107 105 103 101 100 99 99 98 98 98 97 97 97 96 96 95 95 95 94 93 91 89 87 87 88 89 90 91 91 92 92
41 42 43 43 44 45 46 47 48 48 50 51 53 54 56 57 59 61 63 65 66 68 70 73 75 76 75 76 78 80 81 83 84 85 86 88 89 90 92 92 93 94 96 98 100 102 104 105 107 108 109 108 107 105 104 102 101 100 99 98 98 98 97 98 98 97 97 97 97 97 97 96 96 94 93 91 90 90 90 91 92 93 94 96 96 96
41 42 43 43 44 45 46 47 48 49 50 51 53 55 57 59 61 63 65 67 69 70 73 75 78 79 79 79 81 82 84 85 86 87 88 89 90 91 93 94 96 97 99 101 103 104 105 105 106 105 104 103 102 101 100 99 98 98 98 98 98 98 98 98 98 98 98 98 98 97 97 97 96 95 93 92 92 93 94 95 96 98 99 100 100 101
43 43 44 44 45 46 46 48 49 50 50 51 53 55 56 58 61 63 65 68 70 71 74 76 78 80 80 79 81 83 84 85 86 87 88 90 92 94 96 97 99 100 101 101 101 101 101 101 100 100 99 99 99 98 98 98 98 98 98 98 99 99 99 99 99 100 100 100 99 98 97 97 96 95 95 95 95 96 98 99 100 102 103 104 105 106
44 45 46 46 47 47 48 49 49 50 51 52 53 55 56 58 59 62 64 66 68 70 72 74 76 78 78 77 79 82 83 84 84 86 88 90 92 94 95 96 96 97 97 97 96 96 96 96 97 97 97 97 98 98 98 99 99 99 99 99 100 100 100 100 100 100 100 100 99 98 98 98 97 97 97 98 99 100 102 103 104 106 107 108 109 110
45 46 47 48 48 49 50 50 51 51 52 54 55 56 57 59 60 61 63 65 66 68 70 71 73 75 75 74 76 79 80 81 81 83 85 87 88 89 90 91 91 92 93 93 93 94 94 95 95 96 97 97 98 99 99 99 100 100 100 100 100 100 99 99 99 99 99 99 99 99 99 100 100 101 102 102 104 105 106 108 109 110 111 112 114 115
47 48 49 49 50 50 51 52 52 53 54 55 57 58 59 60 61 62 63 65 67 68 69 70 72 73 73 73 75 77 78 79 79 81 83 84 85 86 88 89 89 90 91 92 93 93 94 95 95 96 96 97 98 98 99 100 100 100 100 99 99 98 98 99 99 99 99 100 101 101 102 103 104 105 106 107 108 110 111 112 113 115 116 117 118 120
48 50 50 51 51 52 52 53 54 55 56 57 58 60 61 62 63 63 64 66 67 69 70 71 72 73 72 73 75 77 78 79 80 81 82 84 85 86 87 88 89 89 90 91 92 93 93 94 95 95 96 97 97 98 98 99 99 98 98 99 99 99 99 100 101 101 102 103 105 106 107 108 109 110 112 113 114 115 116 117 118 119 120 122 123 124
50 52 53 53 53 54 54 55 56 57 58 59 60 62 63 64 65 65 66 67 68 70 71 72 73 73 72 74 75 77 79 80 81 82 83 84 84 86 87 87 88 88 89 91 92 92 93 93 94 95 95 96 96 96 97 97 98 98 99 100 101 102 103 104 105 106 107 108 109 111 112 113 115 116 117 118 120 121 122 123 124 125 126 127 128 129
51 54 56 56 56 56 57 58 59 59 61 61 62 63 64 65 67 67 67 67 68 69 70 71 72 73 73 74 75 77 80 81 82 83 84 84 85 86 87 87 87 88 89 90 91 91 92 92 92 93 93 94 95 96 97 98 99 100 102 104 105 106 107 109 110 111 112 113 115 116 118 119 120 122 123 124 125 127 128 129 130 130 131 132 133 134
52 55 57 58 58 58 58 59 60 61 62 62 62 63 64 65 66 67 67 67 68 69 69 71 73 74 75 76 77 79 81 81 82 83 83 83 83 84 85 85 85 85 86 87 87 88 89 90 91 93 94 96 97 99 100 102 103 105 106 108 109 111 113 114 115 117 118 119 120 122 123 125 126 127 128 129 130 131 133 134 135 136 136 136 137 137
53 56 58 58 58 58 59 60 60 61 62 62 62 63 64 65 66 66 67 68 69 70 71 71 73 75 75 76 76 77 78 78 78 79 79 79 79 80 81 81 81 82 84 85 87 89 90 92 94 96 98 100 101 103 105 106 108 110 112 113 114 116 118 119 120 122 123 124 125 126 128 129 130 132 133 134 134 135 136 137 139 140 140 140 141 141
54 56 58 59 58 58 59 60 60 61 62 62 63 64 64 65 66 67 68 69 69 70 70 70 70 70 71 71 72 72 73 73 74 75 76 77 77 79 80 82 83 84 86 88 90 92 94 96 98 100 102 104 106 108 110 111 113 115 116 118 119 120 122 123 124 125 126 128 129 130 132 133 134 136 137 138 139 139 140 141 141 142 143 143 144 144
55 55 57 58 58 58 59 59 60 60 61 62 62 63 64 64 65 65 66 67 67 67 67 66 65 65 66 68 69 70 71 72 74 76 77 78 80 82 84 86 87 89 91 93 94 96 98 100 102 104 106 108 110 111 113 115 117 119 120 122 123 125 126 127 129 130 131 133 134 135 136 137 138 139 140 140 141 141 141 141 141 141 141 140 140 140
54 54 55 56 56 55 56 57 58 58 59 60 60 61 62 62 62 62 62 63 64 64 64 64 63 64 67 70 71 72 74 76 77 79 81 83 84 86 88 90 92 93 95 96 98 100 102 104 106 108 110 111 113 115 117 119 121 123 125 126 128 130 131 133 134 135 136 137 138 138 138 138 138 138 138 137 137 137 136 136 135 134 134 133 132 132
52 52 53 53 53 53 54 54 55 56 56 57 57 58 59 59 59 59 59 61 63 64 65 66 65 66 70 73 74 75 77 79 81 83 85 86 88 89 91 93 95 97 98 100 102 104 106 108 110 112 114 117 119 120 122 124 126 128 130 131 133 134 135 135 136 136 136 136 136 135 135 133 133 132 132 131 131 130 130 129 128 128 127 126 126 125
50 50 51 51 51 51 52 53 53 54 54 55 56 57 57 58 59 60 60 62 64 66 68 69 68 69 72 75 77 79 80 82 84 86 88 90 91 93 95 97 99 101 103 105 107 109 111 113 115 118 120 122 124 125 127 128 129 130 131 131 132 132 132 132 132 132 131 131 131 130 129 128 127 127 126 126 126 125 125 125 124 124 123 122 122 121
49 49 49 50 50 50 50 51 52 53 53 54 56 58 59 59 60 61 63 64 66 68 70 72 72 73 75 77 79 81 83 85 88 90 92 94 96 97 100 102 104 106 108 110 112 115 117 118 120 122 123 124 125 126 126 126 126 126 126 127 127 127 128 127 127 127 126 126 126 126 125 124 123 123 123 122 122 122 122 122 121 120 120 119 118 117
49 48 48 49 50 50 51 52 53 54 55 56 57 59 61 62 63 64 65 67 69 71 73 75 76 78 79 81 83 86 88 90 92 95 97 99 100 102 105 107 110 111 113 115 116 118 119 120 121 122 122 122 122 122 122 122 122 122 122 123 123 123 123 123 123 122 122 122 122 121 121 121 120 120 120 119 119 119 119 118 118 117 117 116 115 114
49 49 49 49 49 51 52 54 55 56 57 58 59 61 63 64 65 67 69 71 73 75 77 79 81 82 84 86 89 91 93 95 98 100 102 104 106 107 110 112 114 115 116 117 118 118 118 119 119 119 119 119 119 119 118 118 118 118 119 120 120 120 120 119 119 119 119 119 119 119 119 119 119 118 117 117 116 116 115 115 114 114 113 113 112 111
50 50 50 50 51 52 54 56 57 58 59 61 62 64 65 67 69 71 73 75 77 79 82 84 86 87 89 91 94 96 98 101 103 106 108 110 111 113 115 117 117 118 119 118 118 117 117 117 117 117 117 117 117 116 116 116 116 116 116 117 118 118 118 118 118 119 119 119 118 118 117 116 116 115 114 113 112 111 111 110 110 109 109 109 108 106
51 52 52 53 54 56 57 59 60 61 63 64 66 67 69 71 73 75 77 80 82 84 87 89 91 93 94 96 99 102 104 106 108 111 113 115 116 118 119 119 119 119 118 117 116 116 115 115 115 115 115 115 115 115 115 115 115 115 116 117 117 118 118 118 118 118 117 116 115 114 113 112 111 110 108 107 107 106 105 104 104 104 103 103 103 102
54 55 56 56 57 59 61 62 64 65 66 68 70 71 73 75 77 80 82 84 87 89 91 94 96 98 99 101 104 106 108 110 113 115 116 117 117 118 117 117 116 116 115 114 114 113 113 113 113 113 113 114 114 114 114 115 115 116 116 117 117 117 116 116 115 114 112 111 110 109 108 106 104 103 102 101 100 100 99 99 99 98 99 99 99 99
57 58 59 60 61 62 64 65 67 69 71 73 74 76 77 79 81 84 86 89 91 94 96 98 100 102 104 105 108 110 111 113 115 115 115 115 114 114 113 113 113 112 111 111 111 111 111 111 111 112 113 113 113 114 114 114 114 114 114 114 113 112 112 111 110 109 107 106 105 104 102 100 99 98 97 97 97 96 96 96 96 96 96 96 96 96
59 61 62 63 64 66 67 69 71 73 75 78 79 81 82 84 85 88 90 92 95 98 100 102 104 106 107 109 110 111 112 113 113 113 113 112 112 111 111 110 110 109 109 109 110 110 111 111 112 112 113 113 113 112 111 110 110 109 108 108 108 107 107 106 105 104 103 102 101 100 98 97 96 96 95 95 94 94 94 94 94 94 94 94 94 94
62 64 65 66 68 70 71 73 75 77 79 82 84 85 86 88 90 92 94 96 99 102 104 105 107 109 110 110 111 111 111 111 111 111 110 110 109 109 109 109 108 108 108 109 109 110 111 111 111 111 111 110 109 108 107 106 105 104 104 104 105 104 104 103 102 101 101 100 99 97 96 95 94 94 94 93 93 92 92 92 92 92 92 92 91 91
65 67 69 71 72 74 76 77 79 81 83 85 88 89 91 93 94 96 98 100 103 105 106 107 108 108 108 108 108 108 108 108 108 108 108 107 107 107 107 107 107 108 108 109 109 109 109 109 109 108 108 106 105 104 103 103 102 102 102 102 102 102 101 100 100 100 99 98 97 95 94 93 93 93 92 92 91 91 91 91 91 91 90 89 88 87
69 71 73 75 77 78 80 81 83 85 88 90 91 93 95 96 98 99 101 103 104 105 106 106 105 105 105 104 104 104 105 105 106 106 106 105 105 105 105 106 106 107 107 107 107 106 106 105 105 105 105 104 103 102 101 101 101 101 101 100 100 99 99 98 98 98 97 97 95 94 93 92 92 91 90 89 89 88 88 88 87 87 86 84 84 83
73 75 77 79 81 83 85 86 88 90 92 93 95 96 97 98 99 100 100 101 102 102 102 102 102 102 102 102 102 103 103 103 104 104 104 104 104 104 104 104 104 105 104 103 102 102 102 102 102 102 102 102 101 101 100 99 99 99 99 98 98 97 97 96 97 97 96 95 94 93 91 90 88 87 86 85 84 84 84 83 83 83 81 80 79 78
77 79 81 83 85 87 88 90 91 93 95 96 97 97 98 97 97 97 96 97 98 99 99 99 100 100 100 101 101 101 101 101 103 103 103 103 103 103 103 102 102 102 101 100 99 99 100 101 101 101 100 100 99 98 98 97 97 97 97 97 97 96 96 96 96 95 94 92 91 89 87 86 84 82 81 80 80 80 80 80 79 79 78 76 75 74
82 83 85 86 88 89 90 92 93 94 95 95 95 95 95 94 94 93 93 93 95 96 97 97 98 98 98 99 99 99 99 100 101 102 102 102 102 101 101 100 100 100 100 99 99 99 100 100 100 99 98 97 96 95 95 94 95 95 96 96 96 95 94 94 93 91 89 88 86 84 83 81 79 78 78 78 78 78 78 77 77 76 74 72 72 73
85 86 87 88 89 90 90 90 90 91 92 92 92 92 92 92 91 91 91 91 92 94 94 95 95 96 96 96 97 97 96 96 98 100 101 100 100 99 99 99 99 100 99 99 99 99 99 98 98 97 96 95 94 93 92 92 93 93 93 93 92 90 89 89 88 86 85 83 82 81 79 77 76 75 75 76 76 77 76 75 74 73 70 70 70 71
85 85 86 87 87 87 87 88 88 88 88 89 89 90 90 90 90 90 90 91 92 92 93 94 94 94 94 94 94 94 93 92 92 95 97 98 98 97 96 97 98 98 99 98 97 97 97 97 96 96 95 94 93 92 91 91 90 90 89 88 86 85 84 84 83 82 81 80 79 78 77 76 74 73 73 73 74 75 74 72 71 69 68 69 69 67
82 83 83 84 85 85 85 85 86 86 87 87 88 88 89 90 90 90 91 90 91 92 92 92 92 92 91 91 91 91 91 90 89 90 92 93 94 95 95 95 95 95 96 96 96 95 95 95 95 94 94 94 92 91 90 88 88 86 85 84 83 82 81 81 80 79 78 77 77 76 75 74 72 71 71 70 71 72 71 69 67 66 67 67 66 63
80 80 80 81 82 82 82 82 83 84 85 86 86 87 88 89 89 90 90 90 89 90 90 90 89 89 89 89 89 89 90 91 90 89 89 90 91 92 93 94 94 94 94 94 94 93 93 93 94 94 94 92 91 89 87 86 85 84 83 82 81 81 80 79 78 77 76 75 74 73 73 72 70 68 68 68 67 68 67 65 63 63 64 65 63 61
76 76 77 77 78 79 79 79 80 81 83 84 85 85 86 87 86 87 87 87 87 87 87 88 88 88 88 88 88 89 89 89 90 90 89 89 89 90 91 92 92 92 92 92 92 92 92 93 93 93 92 91 89 87 85 84 83 83 82 81 81 80 80 79 77 75 74 72 71 70 70 68 67 66 65 65 64 64 64 61 59 60 61 60 60 58
73 73 73 74 74 75 76 76 76 77 78 79 80 81 81 82 82 82 83 84 84 85 85 86 86 86 86 86 87 87 88 88 89 89 89 89 88 89 90 90 91 91 91 91 92 92 92 92 92 92 90 88 86 85 83 82 81 81 80 79 79 79 78 77 75 73 72 70 68 67 66 65 64 63 62 62 62 61 60 58 56 57 57 56 56 55
69 70 71 71 71 72 72 73 73 73 73 74 75 76 77 77 78 79 80 81 82 82 83 83 83 83 83 84 84 85 86 87 87 87 87 87 87 88 88 89 89 90 90 90 91 91 90 90 89 88 87 86 84 83 82 80 79 78 78 77 76 76 75 74 73 71 69 68 67 65 64 63 61 60 59 59 59 58 57 54 54 54 53 52 52 52
67 68 69 69 70 70 71 71 71 71 71 72 73 74 75 76 77 79 79 80 80 81 81 81 81 81 82 82 83 84 85 85 85 85 85 85 85 86 87 88 88 89 89 90 90 89 88 86 85 84 84 83 82 81 80 78 77 76 75 74 73 73 73 71 70 68 67 66 65 63 62 61 59 57 56 56 56 56 54 52 51 52 50 49 49 48
65 66 67 67 68 69 70 70 71 72 72 72 74 75 75 76 77 78 79 79 80 80 80 81 81 81 81 81 82 83 83 83 83 83 83 83 84 85 86 87 88 89 88 87 87 85 84 83 82 81 81 81 80 79 78 77 75 74 73 72 71 70 70 69 67 66 64 63 62 61 60 59 57 55 53 53 53 53 51 48 49 49 48 47 47 46
65 66 68 69 69 69 70 71 72 73 73 73 74 75 76 77 77 78 79 80 80 81 81 81 81 81 81 81 81 81 81 81 81 82 82 83 84 85 86 87 87 87 86 84 83 81 80 79 79 79 78 78 78 78 76 75 74 73 71 70 68 68 67 66 64 63 62 61 60 59 57 56 55 53 51 50 51 51 48 45 44 46 46 45 45 43
67 68 69 70 71 71 71 71 72 74 74 74 75 76 76 77 78 79 80 80 80 81 81 81 80 80 79 79 79 79 80 80 81 81 82 83 84 85 86 86 85 84 83 81 80 79 78 78 78 77 76 76 76 75 74 73 71 70 69 67 66 66 66 65 63 61 60 59 58 57 55 54 53 51 49 48 48 50 48 44 41 42 43 43 43 41
66 67 68 69 70 70 70 70 70 71 72 73 73 74 75 76 77 78 78 79 79 79 79 79 79 79 78 78 78 79 79 81 81 82 83 83 84 84 84 84 83 81 80 79 78 78 77 77 76 75 75 74 74 73 72 70 69 68 67 65 64 64 64 64 62 60 58 57 56 54 53 52 50 49 48 46 45 46 47 45 41 39 39 40 40 39
65 66 66 67 68 68 68 67 67 67 68 69 70 71 73 74 75 76 76 77 77 76 76 76 76 77 78 78 78 79 80 81 82 82 83 82 82 82 82 81 80 79 78 77 77 77 77 76 75 74 73 73 72 71 69 69 68 67 66 64 62 62 62 62 61 59 56 55 54 53 51 49 47 46 46 44 42 41 43 44 42 39 38 37 37 36
65 65 66 67 67 67 67 67 66 66 67 68 69 70 71 72 73 74 74 74 74 74 73 73 73 74 76 77 78 79 80 81 81 81 81 81 81 80 80 79 77 77 76 75 75 75 75 74 74 73 72 72 71 70 69 68 67 66 64 62 60 59 59 59 58 57 55 53 52 50 48 47 45 43 42 42 41 39 39 40 40 38 36 34 34 33
Wind_Direction
278 277 276 277 276 275 274 273 272 271 270 270 269 269 269 269 269 269 270 270 270 270 271 272 272 273 274 274 274 273 272 272 272 272 272 273 274 275 276 276 277 276 276 276 276 277 278 279 279 280 280 280 281 281 281 281 282 282 283 283 284 285 286 286 287 287 287 286 285 284 284 283 283 282 282 281 281 280 280 279 279 277 276 274 273 271
279 279 278 279 278 277 276 275 274 274 273 272 271 271 270 270 270 270 271 271 270 270 270 271 271 271 272 271 271 271 271 272 272 273 274 276 277 277 277 277 276 276 277 277 278 279 280 281 281 281 281 281 281 281 281 282 282 283 283 284 284 285 286 287 287 286 285 285 284 283 283 282 282 281 281 281 280 280 279 278 277 275 274 272 271 270
280 280 281 281 280 279 279 278 278 277 275 274 273 272 272 272 271 271 271 271 271 271 271 271 270 269 268 268 268 269 270 271 273 274 275 276 277 277 276 276 277 278 279 280 280 281 281 281 281 281 281 281 281 281 282 282 283 284 284 285 286 286 286 286 286 285 284 284 283 282 282 281 281 281 280 280 280 279 278 276 274 272 271 270 269 269
281 282 283 283 282 282 282 281 281 279 278 277 276 275 274 274 273 272 271 271 271 270 270 270 269 269 268 268 268 269 270 271 273 274 275 275 275 275 275 276 277 278 279 280 281 281 280 280 280 280 281 281 282 282 283 283 284 284 285 286 286 286 285 285 284 284 283 283 282 281 281 281 280 280 280 279 279 278 276 273 271 270 269 269 268 268
286 286 286 285 285 284 284 283 282 281 280 279 278 277 276 275 274 273 272 271 271 270 270 270 270 271 271 271 271 271 272 272 273 273 274 274 274 275 276 277 278 279 279 280 280 279 279 279 280 281 281 282 282 283 283 284 284 285 285 285 285 284 284 284 283 283 282 282 281 281 280 280 279 279 279 278 278 276 273 271 270 269 269 269 269 269
288 289 288 288 288 287 286 285 284 283 282 281 280 279 277 275 274 273 271 270 270 270 271 271 272 272 273 273 273 273 273 273 273 273 274 274 275 276 277 278 279 279 279 279 279 279 279 279 280 281 281 282 282 283 283 284 284 284 284 284 284 283 283 283 282 282 281 281 281 280 280 280 280 279 279 277 276 273 271 269 269 269 270 270 270 270
288 289 289 289 289 288 288 287 286 285 283 282 282 281 279 277 275 273 272 271 270 270 271 272 273 274 274 273 273 273 273 273 273 274 274 275 276 277 278 278 278 278 278 278 278 278 279 280 281 281 282 282 283 283 283 283 283 283 283 283 283 283 283 282 282 281 281 281 281 281 281 280 280 279 278 277 274 271 270 269 269 270 270 270 270 270
289 289 289 290 290 289 289 288 287 287 285 284 283 282 281 279 277 276 274 273 273 272 272 272 273 274 274 274 274 274 274 275 275 276 276 277 278 278 279 278 278 278 278 278 278 279 280 280 281 282 282 282 283 283 283 283 283 283 283 283 283 283 282 282 282 282 281 281 281 281 281 280 279 278 277 275 273 272 271 271 271 271 271 271 272 271
290 290 290 291 291 290 290 290 289 288 287 286 285 283 282 281 279 278 277 276 275 274 273 273 274 274 275 275 275 276 276 276 277 278 279 279 279 279 278 278 278 278 278 278 279 280 281 281 281 282 282 282 283 283 283 283 283 283 283 283 283 282 282 282 282 282 282 282 281 281 280 280 279 278 276 275 273 272 272 272 272 272 272 273 273 273
292 292 292 292 292 291 291 290 290 289 289 288 286 285 283 282 281 280 279 278 278 277 276 276 276 277 277 278 278 278 278 279 279 279 279 279 279 279 278 278 279 279 279 280 281 281 281 281 282 282 282 283 283 283 283 283 283 283 283 283 283 283 283 283 283 283 282 282 281 281 280 279 278 277 276 275 273 273 272 272 272 272 273 273 273 273
294 294 293 293 292 292 291 291 290 290 289 288 287 286 285 284 283 282 282 281 281 280 280 279 280 280 280 281 281 281 281 280 280 280 279 279 279 279 279 279 280 280 280 281 281 281 282 282 283 283 284 284 284 284 284 284 284 284 284 284 283 283 283 283 282 282 281 281 281 280 279 278 277 276 275 274 274 273 273 273 273 272 273 273 273 273
294 294 293 293 292 292 292 291 291 290 289 288 288 287 286 286 285 284 284 284 283 283 282 282 282 282 283 283 283 282 282 282 281 281 280 280 279 280 280 280 281 281 282 282 283 283 283 284 284 284 284 285 284 284 284 284 284 284 283 283 283 282 282 282 281 280 280 280 279 279 278 277 277 276 275 274 273 273 273 273 273 273 273 273 273 273
294 294 293 293 293 293 292 292 292 291 290 290 289 288 288 287 286 286 286 285 285 284 284 284 283 284 285 285 284 283 283 283 282 282 281 281 281 282 282 282 283 283 284 284 284 284 284 284 284 284 284 284 284 284 283 283 283 283 283 283 282 282 281 281 280 280 280 279 279 278 278 277 277 276 275 275 274 274 273 273 273 273 273 274 274 274
295 294 294 293 293 293 293 293 292 291 291 290 290 289 288 288 287 287 286 286 285 285 285 285 285 285 286 286 285 285 284 284 283 282 282 283 283 283 283 283 283 284 284 284 284 284 284 284 284 284 284 284 284 284 283 283 283 283 283 283 283 282 282 281 281 281 280 280 280 279 279 278 277 277 277 276 276 275 275 275 275 275 275 275 275 275
297 296 295 295 294 294 294 294 293 292 292 291 290 290 289 289 288 287 286 286 286 286 286 286 286 286 286 286 285 285 285 284 284 284 283 283 283 283 283 283 284 284 284 284 284 284 284 284 284 284 284 284 284 284 284 284 284 284 284 284 283 283 282 282 282 281 281 281 280 280 280 279 279 278 278 278 277 277 277 277 276 276 276 276 276 276
297 296 296 296 296 296 296 295 294 293 292 292 291 290 290 289 289 288 288 287 287 287 287 287 287 287 286 286 286 285 284 285 285 284 284 284 284 284 284 284 284 285 285 285 285 285 285 284 284 284 284 284 284 284 284 284 284 284 284 284 283 283 283 282 282 282 282 281 281 281 280 280 280 280 279 279 279 278 278 278 277 277 277 276 276 276
297 296 295 295 296 296 296 295 294 293 292 291 291 290 289 289 289 288 288 288 287 287 287 287 287 287 287 287 286 285 285 285 285 285 285 285 285 285 285 285 285 285 285 285 285 285 285 285 285 285 285 285 285 285 285 285 285 284 284 284 284 283 283 283 283 282 282 282 281 281 281 280 280 280 279 279 279 278 278 278 278 278 277 277 277 276
297 296 295 295 295 296 295 294 293 292 291 291 290 290 289 289 289 289 288 288 287 287 287 287 287 288 288 288 287 286 286 286 286 286 286 286 286 286 286 286 286 286 286 286 286 286 286 286 286 286 286 286 286 285 285 285 285 284 284 284 283 283 283 283 283 282 282 282 281 281 281 280 280 280 280 279 279 279 278 278 278 278 278 278 277 277
297 296 295 296 296 295 294 293 292 292 291 291 290 290 289 289 289 289 289 289 289 289 289 289 288 289 289 288 288 287 288 288 288 288 288 288 288 288 288 288 288 288 288 287 287 287 287 287 287 286 286 286 286 286 285 285 285 285 284 284 284 284 283 283 283 283 282 282 282 281 281 281 280 280 280 279 279 279 278 278 278 277 277 277 277 276
297 296 295 295 295 295 294 293 292 292 291 291 291 291 291 291 291 291 291 291 291 290 290 290 290 290 290 289 289 290 290 290 290 290 290 290 290 290 290 290 289 289 288 288 288 288 287 287 287 287 286 286 286 286 286 286 286 285 285 285 285 284 284 284 283 283 283 282 282 281 280 280 280 279 279 279 279 279 278 278 278 278 277 277 277 277
297 296 295 295 295 295 294 294 293 293 293 292 292 292 292 292 292 292 293 292 292 292 292 292 292 293 292 292 292 293 293 293 293 292 292 292 291 291 290 290 290 289 289 289 289 289 289 288 288 288 287 287 287 287 286 286 286 286 286 285 285 285 284 284 283 283 282 282 281 281 280 280 280 280 280 280 280 280 279 279 279 279 279 278 278 278
299 298 297 297 297 296 296 295 295 294 294 294 294 294 293 294 294 294 294 294 294 295 295 295 296 296 294 294 295 295 294 294 293 293 292 292 291 291 291 291 290 290 290 290 290 290 289 289 289 289 288 288 288 287 287 286 286 286 285 285 285 284 284 283 283 283 282 282 282 282 282 282 282 282 282 282 282 282 281 281 281 281 280 280 280 279
300 299 298 298 298 298 298 297 296 296 296 296 296 296 296 296 297 297 297 296 296 297 297 297 298 297 295 295 295 294 294 294 293 293 292 292 292 292 292 291 291 291 291 291 290 290 290 289 289 289 288 288 287 287 286 286 286 285 285 285 285 284 284 284 284 284 284 284 284 284 285 285 285 284 284 284 284 283 283 282 282 282 281 281 280 280
301 301 301 301 301 300 299 299 298 299 299 299 298 298 298 299 299 299 299 298 298 297 297 297 297 295 294 294 293 293 293 293 293 292 292 292 292 292 292 292 292 291 291 291 291 290 290 289 289 288 288 287 287 287 287 287 287 287 286 286 286 286 285 285 285 286 286 286 286 286 286 286 286 285 285 284 284 284 283 283 283 282 282 282 281 281
303 303 303 304 304 303 301 301 301 301 301 301 300 300 300 301 300 300 299 298 298 297 296 296 296 295 294 294 294 294 294 293 293 293 292 293 293 292 292 292 291 291 291 291 290 290 290 290 290 289 289 289 289 289 289 288 288 288 288 287 287 287 287 287 288 288 287 287 287 287 286 286 286 286 286 285 285 285 285 284 284 284 283 283 282 282
305 305 306 306 305 304 303 303 303 303 302 302 301 301 300 300 300 298 298 297 297 297 296 296 295 295 295 295 295 295 294 294 293 293 293 293 293 293 292 292 292 292 292 292 292 292 292 292 292 291 291 291 291 290 290 289 289 289 289 289 289 289 289 289 289 289 289 288 288 288 288 288 288 287 287 287 286 286 286 285 285 284 284 283 283 282
307 307 307 307 306 304 303 303 303 302 302 301 301 300 300 299 298 298 298 297 297 297 297 296 296 296 296 296 295 295 295 295 294 294 294 294 295 295 294 294 295 295 295 295 294 294 294 294 293 293 293 292 292 291 291 291 291 291 291 291 291 291 292 291 291 291 291 290 290 290 289 289 288 288 288 287 287 286 286 285 285 284 283 283 282 282
308 308 308 307 306 305 304 304 303 303 302 301 300 300 300 299 299 298 298 298 298 298 297 297 297 297 297 296 296 296 296 296 296 296 296 296 296 296 296 296 296 296 296 296 296 296 295 295 294 294 294 293 293 292 293 293 293 294 294 294 294 293 293 292 292 291 291 290 290 290 289 289 288 288 288 287 287 286 285 285 284 283 283 282 281 281
309 308 308 307 306 305 304 304 303 302 302 301 300 300 300 300 299 299 299 299 298 298 297 297 297 297 297 297 297 297 297 297 297 297 297 297 297 297 297 297 297 297 297 297 297 296 296 295 295 294 294 294 294 294 295 296 296 296 295 294 294 293 292 292 291 291 290 290 290 289 289 289 289 288 288 287 287 286 286 285 284 284 283 282 281 281
309 308 307 307 306 305 304 304 303 303 302 301 301 301 300 300 300 299 299 299 298 298 298 297 297 298 298 298 298 298 298 298 298 297 297 298 298 298 298 298 297 297 297 297 297 296 296 296 295 295 295 295 296 296 296 296 295 294 294 293 293 292 292 292 292 291 291 291 291 291 290 290 290 290 289 289 288 288 287 286 286 285 284 283 282 281
308 307 307 306 305 305 304 304 303 303 302 301 301 301 300 300 300 299 299 299 298 298 298 298 298 299 299 299 299 299 299 299 299 299 299 299 299 299 299 298 298 298 298 297 297 297 297 297 297 297 296 296 296 296 295 294 294 294 294 294 293 293 293 293 293 293 293 293 293 293 293 293 292 292 291 290 290 289 288 287 286 285 284 283 283 282
308 307 306 306 305 304 304 304 303 303 302 301 301 301 301 300 300 300 300 299 299 299 299 300 300 300 300 300 300 300 300 300 299 299 299 299 299 299 299 299 299 299 298 298 297 297 297 297 297 296 296 296 296 296 296 296 296 296 296 296 296 296 296 296 296 296 295 295 295 294 294 294 293 293 292 291 291 290 289 288 287 286 284 284 283 283
307 307 306 306 305 304 304 304 303 303 302 302 302 302 301 301 301 301 301 301 301 301 300 300 300 300 300 300 300 300 299 300 300 300 299 300 300 299 299 299 299 299 298 298 297 297 297 297 297 297 297 297 297 298 298 298 298 298 298 298 298 297 297 297 297 297 296 296 295 295 295 295 294 293 293 292 291 291 289 288 287 286 285 284 284 283
307 307 306 306 305 305 304 304 304 303 303 302 302 302 302 302 302 302 302 302 301 301 301 300 300 300 300 300 300 300 300 300 300 300 300 300 300 300 299 299 299 298 298 298 298 299 299 299 299 299 299 300 300 301 301 301 301 300 300 299 299 298 298 298 297 297 297 296 296 296 296 295 294 294 293 292 291 290 288 287 286 285 285 284 283 283
307 307 306 306 305 305 305 305 304 303 303 303 303 303 303 303 302 302 302 301 301 301 301 301 301 301 301 301 301 301 301 301 301 300 300 300 300 300 299 299 299 299 300 300 300 301 301 301 301 302 302 302 302 302 302 302 301 301 300 299 299 299 299 298 298 297 297 297 297 296 295 295 294 293 292 292 291 289 288 287 286 286 285 284 284 284
307 307 306 306 306 305 305 305 304 304 304 303 303 303 303 303 302 302 302 302 301 301 302 301 301 302 302 301 301 301 301 301 301 301 301 301 301 301 301 301 301 302 302 302 303 303 303 303 303 303 303 303 303 303 302 302 302 301 300 300 300 300 299 299 298 297 297 297 296 295 295 295 294 294 293 292 291 290 289 288 287 287 286 286 286 285
307 307 307 306 306 305 305 304 304 304 303 303 303 303 303 303 303 303 303 302 302 302 302 302 302 302 302 302 302 302 302 303 302 302 302 302 302 303 303 304 304 304 305 305 305 305 305 304 304 303 303 303 303 303 303 302 302 301 301 301 300 300 299 299 298 298 297 297 297 296 296 296 296 295 295 294 292 291 290 289 288 288 288 288 287 286
307 307 307 306 306 305 305 305 304 304 303 304 304 304 304 304 304 304 304 303 303 302 302 302 302 302 303 303 303 303 303 303 303 303 303 304 304 305 306 306 306 306 306 306 306 305 304 304 304 304 304 303 303 303 303 303 302 302 301 301 300 300 300 299 299 298 298 298 298 298 298 297 297 297 296 295 294 292 291 291 290 290 290 289 287 285
307 307 307 306 306 306 306 306 306 306 305 305 305 305 305 305 305 305 305 304 304 304 304 304 304 304 304 304 304 304 304 304 304 304 305 306 306 307 307 307 306 306 306 305 305 305 305 305 305 304 304 304 305 305 304 304 303 302 302 301 301 301 300 300 300 299 299 299 299 299 299 299 298 297 296 295 294 293 292 292 291 292 291 288 286 286
308 308 308 308 308 308 308 308 308 308 307 307 307 307 307 307 307 306 306 306 306 305 305 305 305 305 305 305 306 306 306 307 307 307 307 307 307 307 307 307 306 306 306 306 306 306 306 306 306 306 306 306 306 306 305 305 304 304 303 303 303 303 302 301 301 301 301 301 301 300 300 299 299 298 297 295 294 293 292 292 292 292 290 287 287 287
310 310 310 309 309 309 309 309 309 308 308 308 308 307 307 307 307 307 307 307 307 307 306 306 307 307 308 308 309 310 310 310 310 310 309 309 309 308 308 308 308 308 307 307 307 307 308 308 308 308 308 308 308 308 307 307 306 306 306 305 305 305 304 303 302 302 302 302 302 301 300 300 299 298 297 295 294 293 292 293 293 291 289 288 288 288
311 311 311 310 310 310 309 309 309 309 308 308 308 308 308 308 308 308 308 308 308 308 308 309 309 310 311 312 312 312 312 311 311 311 311 310 310 310 309 309 309 309 309 309 309 310 310 310 310 309 309 310 310 310 309 309 308 308 307 307 307 306 305 304 304 304 304 304 303 302 301 300 299 299 297 296 295 294 293 293 292 290 288 289 288 287
312 312 311 311 310 310 309 309 308 308 308 308 308 308 308 308 309 309 309 309 310 310 311 312 312 313 314 314 314 313 313 312 312 312 312 312 312 311 310 310 310 310 311 311 311 311 311 311 311 310 310 310 311 310 310 310 309 309 308 308 307 306 305 305 305 305 305 304 303 302 301 301 300 299 298 297 296 295 294 294 292 290 289 289 288 287
314 313 313 312 311 311 311 310 310 310 310 310 310 310 310 311 311 311 311 312 313 313 314 314 315 315 315 315 315 314 314 313 313 313 314 314 313 312 312 312 312 312 312 312 312 312 312 311 311 311 311 311 311 311 310 310 310 309 309 308 308 307 306 306 307 307 307 306 305 304 303 302 301 300 299 298 297 296 295 295 293 291 291 290 289 288
317 316 316 315 315 315 315 315 315 315 315 315 315 315 315 315 315 315 315 316 316 316 316 316 317 317 317 317 316 316 315 315 315 315 315 314 314 313 313 313 313 313 313 313 312 312 312 312 312 312 312 312 312 311 311 311 311 310 310 309 309 308 308 308 308 308 307 306 306 305 304 303 302 302 301 299 298 297 297 297 295 293 292 291 290 289
321 320 320 320 320 320 320 320 320 320 320 320 319 319 319 319 318 318 318 318 318 318 318 319 319 320 320 319 319 318 317 317 316 316 315 315 315 315 314 314 313 313 313 313 313 313 313 313 313 313 313 313 313 313 313 313 313 312 311 311 310 310 309 309 309 309 308 307 307 306 305 304 304 303 302 301 300 298 297 298 297 295 294 293 292 291
327 327 326 325 325 325 325 325 324 324 324 324 323 322 322 321 321 321 321 321 321 321 322 322 322 322 322 321 320 319 318 318 317 317 317 317 316 315 314 314 314 314 314 314 314 314 314 314 314 315 315 314 314 314 315 314 314 313 313 312 312 312 311 310 310 309 309 309 308 307 306 306 305 304 304 303 301 299 298 298 298 297 295 294 293 292
332 331 330 330 329 329 329 329 328 327 326 326 325 324 324 324 323 323 323 323 324 324 324 324 324 324 323 322 321 320 319 319 319 318 318 317 316 315 315 315 315 315 316 316 316 317 317 317 317 317 316 316 316 316 316 315 314 314 313 314 314 314 312 311 311 311 311 310 309 309 308 307 307 306 305 304 303 301 300 299 299 297 296 295 294 293
335 334 333 333 332 332 332 331 330 329 328 328 327 326 326 325 325 325 325 325 325 326 326 326 325 325 323 323 322 321 321 320 320 319 318 317 317 316 316 317 317 317 318 318 319 319 319 319 318 318 318 318 317 317 317 316 316 315 316 316 317 316 314 313 312 312 312 312 310 310 309 309 308 307 306 305 305 303 302 301 301 299 296 295 294 293
338 337 337 336 335 334 334 333 332 331 330 329 328 327 327 327 327 327 326 327 327 327 327 327 326 325 324 323 323 323 322 321 320 319 319 319 318 318 318 319 319 320 320 321 322 321 321 320 320 320 320 319 319 318 318 318 318 318 318 319 318 317 315 314 313 314 314 313 312 311 311 310 309 308 307 306 305 304 302 302 302 300 298 296 294 293
342 341 340 339 338 337 336 335 335 334 333 332 331 330 330 329 329 328 328 328 328 328 328 327 326 325 325 324 324 323 322 322 321 321 321 321 320 320 321 321 321 322 323 323 323 323 322 322 322 323 322 322 321 321 321 320 319 319 320 320 320 318 317 315 314 315 315 314 313 312 312 311 310 310 308 307 306 305 303 302 301 300 299 298 295 293